time, Switch, Flow(0), Analog(2)
yyyy/mm/dd HH:MM:SS.fff, True=FILTERED|False=TOTAL, L/min, V
2023/07/04 15:00:03.173, True, 4.312, 0.141451
2023/07/04 15:00:03.676, True, 3.978, 0.141299
2023/07/04 15:00:04.181, True, 2.322, 0.141680
2023/07/04 15:00:04.676, True, 1.685, 0.140536
2023/07/04 15:00:05.180, True, 0.995, 0.141604
2023/07/04 15:00:05.685, True, 0.995, 0.141146
2023/07/04 15:00:06.180, True, 1.011, 0.143359
2023/07/04 15:00:06.684, True, 0.995, 0.140536
2023/07/04 15:00:07.188, True, 0.995, 0.140154
2023/07/04 15:00:07.685, True, 1.011, 0.142138
2023/07/04 15:00:08.188, True, 0.995, 0.140764
2023/07/04 15:00:08.693, True, 0.995, 0.141527
2023/07/04 15:00:09.189, True, 1.011, 0.143130
2023/07/04 15:00:09.692, True, 0.995, 0.141527
2023/07/04 15:00:10.197, True, 0.995, 0.139849
2023/07/04 15:00:10.693, True, 1.011, 0.141756
2023/07/04 15:00:11.196, True, 0.995, 0.141756
2023/07/04 15:00:11.701, True, 1.328, 0.140993
2023/07/04 15:00:12.197, True, 1.009, 0.141451
2023/07/04 15:00:12.700, True, 0.995, 0.142443
2023/07/04 15:00:13.205, True, 0.995, 0.140688
2023/07/04 15:00:13.700, True, 1.011, 0.141909
2023/07/04 15:00:14.204, True, 0.663, 0.143053
2023/07/04 15:00:14.708, True, 0.995, 0.141299
2023/07/04 15:00:15.205, True, 1.011, 0.141451
2023/07/04 15:00:15.708, True, 0.995, 0.141527
2023/07/04 15:00:16.213, True, 0.995, 0.141756
2023/07/04 15:00:16.716, True, 0.995, 0.140383
2023/07/04 15:00:17.213, True, 1.011, 0.140917
2023/07/04 15:00:17.717, True, 0.995, 0.142138
2023/07/04 15:00:18.221, True, 0.995, 0.139391
2023/07/04 15:00:18.717, True, 1.348, 0.142367
2023/07/04 15:00:19.220, True, 0.995, 0.140536
2023/07/04 15:00:19.717, True, 1.011, 0.143053
2023/07/04 15:00:20.220, True, 0.995, 0.141222
2023/07/04 15:00:20.725, True, 0.995, 0.139773
2023/07/04 15:00:21.220, True, 1.011, 0.142214
2023/07/04 15:00:21.724, True, 0.995, 0.143359
2023/07/04 15:00:22.228, True, 0.995, 0.140383
2023/07/04 15:00:22.725, True, 1.011, 0.140459
2023/07/04 15:00:23.228, True, 1.327, 0.141527
2023/07/04 15:00:23.732, True, 0.995, 0.141527
2023/07/04 15:00:24.228, True, 1.011, 0.139696
2023/07/04 15:00:24.733, True, 0.995, 0.141299
2023/07/04 15:00:25.237, True, 0.995, 0.141833
2023/07/04 15:00:25.732, True, 1.011, 0.141909
2023/07/04 15:00:26.236, True, 0.995, 0.140841
2023/07/04 15:00:26.741, True, 0.996, 0.140078
2023/07/04 15:00:27.237, True, 1.010, 0.141451
2023/07/04 15:00:27.741, True, 0.996, 0.143816
2023/07/04 15:00:28.244, True, 0.994, 0.142138
2023/07/04 15:00:28.748, True, 0.994, 0.141146
2023/07/04 15:00:29.244, True, 1.011, 0.141299
2023/07/04 15:00:29.749, True, 0.995, 0.142367
2023/07/04 15:00:30.245, True, 1.011, 0.141680
2023/07/04 15:00:30.749, True, 1.328, 0.143893
2023/07/04 15:00:31.252, True, 0.994, 0.141527
2023/07/04 15:00:31.748, True, 1.011, 0.142214
2023/07/04 15:00:32.252, True, 0.995, 0.141680
2023/07/04 15:00:32.756, True, 0.995, 0.143130
2023/07/04 15:00:33.253, True, 1.011, 0.140993
2023/07/04 15:00:33.757, True, 0.995, 0.141375
2023/07/04 15:00:34.260, True, 0.995, 0.140536
2023/07/04 15:00:34.757, True, 0.674, 0.142443
2023/07/04 15:00:35.261, True, 1.325, 0.142596
2023/07/04 15:00:35.765, True, 0.996, 0.140230
2023/07/04 15:00:36.261, True, 1.009, 0.142901
2023/07/04 15:00:36.764, True, 0.663, 0.141833
2023/07/04 15:00:37.269, True, 1.326, 0.141833
2023/07/04 15:00:37.764, True, 0.674, 0.140230
2023/07/04 15:00:38.269, True, 0.995, 0.140383
2023/07/04 15:00:38.772, True, 0.995, 0.141604
2023/07/04 15:00:39.277, True, 1.326, 0.141451
2023/07/04 15:00:39.773, True, 1.011, 0.139696
2023/07/04 15:00:40.276, True, 0.995, 0.142443
2023/07/04 15:00:40.781, True, 0.995, 0.141756
2023/07/04 15:00:41.277, True, 1.011, 0.140536
2023/07/04 15:00:41.780, True, 0.996, 0.139773
2023/07/04 15:00:42.284, True, 0.994, 0.143206
2023/07/04 15:00:42.780, True, 1.013, 0.138781
2023/07/04 15:00:43.284, True, 0.993, 0.141604
2023/07/04 15:00:43.789, True, 0.995, 0.140841
2023/07/04 15:00:44.284, True, 1.011, 0.140307
2023/07/04 15:00:44.789, True, 0.996, 0.140764
2023/07/04 15:00:45.292, True, 0.995, 0.140993
2023/07/04 15:00:45.788, True, 1.010, 0.141222
2023/07/04 15:00:46.293, True, 0.995, 0.140307
2023/07/04 15:00:46.796, True, 0.995, 0.141909
2023/07/04 15:00:47.292, True, 1.012, 0.141299
2023/07/04 15:00:47.797, True, 0.994, 0.143053
2023/07/04 15:00:48.300, True, 1.326, 0.141375
2023/07/04 15:00:48.796, True, 1.011, 0.141451
2023/07/04 15:00:49.300, True, 0.995, 0.139773
2023/07/04 15:00:49.804, True, 0.995, 0.142596
2023/07/04 15:00:50.300, True, 1.011, 0.139467
2023/07/04 15:00:50.804, True, 0.663, 0.143587
2023/07/04 15:00:51.309, True, 0.995, 0.140764
2023/07/04 15:00:51.804, True, 1.013, 0.139544
2023/07/04 15:00:52.308, True, 1.324, 0.140459
2023/07/04 15:00:52.804, True, 0.674, 0.143282
2023/07/04 15:00:53.309, True, 0.995, 0.141604
2023/07/04 15:00:53.812, True, 0.995, 0.142824
2023/07/04 15:00:54.317, True, 1.327, 0.141985
2023/07/04 15:00:54.812, True, 1.010, 0.140230
2023/07/04 15:00:55.317, True, 0.663, 0.141680
2023/07/04 15:00:55.821, True, 0.994, 0.141299
2023/07/04 15:00:56.316, True, 1.012, 0.141070
2023/07/04 15:00:56.820, True, 0.996, 0.141604
2023/07/04 15:00:57.325, True, 0.993, 0.143816
2023/07/04 15:00:57.820, True, 1.011, 0.140154
2023/07/04 15:00:58.325, True, 0.996, 0.141680
2023/07/04 15:00:58.828, True, 0.995, 0.142214
2023/07/04 15:00:59.325, True, 1.011, 0.144045
2023/07/04 15:00:59.829, True, 0.995, 0.141985
2023/07/04 15:01:00.333, True, 0.995, 0.144121
2023/07/04 15:01:00.829, True, 1.010, 0.142901
2023/07/04 15:01:01.333, True, 0.994, 0.144656
2023/07/04 15:01:01.836, True, 0.996, 0.143740
2023/07/04 15:01:02.340, True, 0.995, 0.144503
2023/07/04 15:01:02.837, True, 1.009, 0.144121
2023/07/04 15:01:03.341, True, 0.996, 0.141604
2023/07/04 15:01:03.845, True, 0.995, 0.143816
2023/07/04 15:01:04.341, True, 1.011, 0.143435
2023/07/04 15:01:04.844, True, 0.994, 0.145647
2023/07/04 15:01:05.349, True, 0.995, 0.143511
2023/07/04 15:01:05.845, True, 1.011, 0.144808
2023/07/04 15:01:06.349, True, 0.993, 0.144427
2023/07/04 15:01:06.853, True, 0.995, 0.144732
2023/07/04 15:01:07.349, True, 0.674, 0.145113
2023/07/04 15:01:07.852, True, 0.995, 0.146944
2023/07/04 15:01:08.357, True, 0.995, 0.143587
2023/07/04 15:01:08.852, True, 1.011, 0.143587
2023/07/04 15:01:09.357, True, 0.995, 0.146334
2023/07/04 15:01:09.860, True, 0.995, 0.143740
2023/07/04 15:01:10.356, True, 1.011, 0.144884
2023/07/04 15:01:10.860, True, 0.994, 0.145266
2023/07/04 15:01:11.364, True, 0.995, 0.144427
2023/07/04 15:01:11.861, True, 1.011, 0.145571
2023/07/04 15:01:12.365, True, 0.995, 0.147173
2023/07/04 15:01:12.869, True, 0.995, 0.146181
2023/07/04 15:01:13.364, True, 1.011, 0.145571
2023/07/04 15:01:13.868, True, 0.995, 0.146944
2023/07/04 15:01:14.373, True, 0.996, 0.146410
2023/07/04 15:01:14.869, True, 1.010, 0.144045
2023/07/04 15:01:15.372, True, 0.996, 0.146105
2023/07/04 15:01:15.877, True, 0.993, 0.145495
2023/07/04 15:01:16.373, True, 1.011, 0.149462
2023/07/04 15:01:16.877, True, 0.995, 0.145571
2023/07/04 15:01:17.372, True, 1.010, 0.148775
2023/07/04 15:01:17.877, True, 0.995, 0.146944
2023/07/04 15:01:18.381, True, 0.995, 0.146410
2023/07/04 15:01:18.876, True, 1.011, 0.147707
2023/07/04 15:01:19.380, True, 0.995, 0.145571
2023/07/04 15:01:19.885, True, 0.995, 0.148241
2023/07/04 15:01:20.389, True, 0.995, 0.147250
2023/07/04 15:01:20.885, True, 1.011, 0.147478
2023/07/04 15:01:21.389, True, 0.995, 0.148928
2023/07/04 15:01:21.884, True, 1.011, 0.145571
2023/07/04 15:01:22.388, True, 0.995, 0.147936
2023/07/04 15:01:22.893, True, 0.996, 0.147631
2023/07/04 15:01:23.388, True, 1.009, 0.146334
2023/07/04 15:01:23.892, True, 0.995, 0.143969
2023/07/04 15:01:24.397, True, 0.995, 0.147173
2023/07/04 15:01:24.893, True, 1.010, 0.146868
2023/07/04 15:01:25.397, True, 0.995, 0.147250
2023/07/04 15:01:25.901, True, 0.995, 0.146868
2023/07/04 15:01:26.396, True, 1.011, 0.146944
2023/07/04 15:01:26.901, True, 0.995, 0.146487
2023/07/04 15:01:27.404, True, 0.995, 0.146487
2023/07/04 15:01:27.900, True, 1.011, 0.146029
2023/07/04 15:01:28.405, True, 0.995, 0.146639
2023/07/04 15:01:28.909, True, 0.996, 0.147402
2023/07/04 15:01:29.405, True, 1.009, 0.147402
2023/07/04 15:01:29.909, True, 0.995, 0.146563
2023/07/04 15:01:30.404, True, 1.011, 0.145647
2023/07/04 15:01:30.909, True, 0.995, 0.148394
2023/07/04 15:01:31.413, True, 1.326, 0.148470
2023/07/04 15:01:31.909, True, 1.011, 0.146944
2023/07/04 15:01:32.412, True, 0.995, 0.146487
2023/07/04 15:01:32.917, True, 0.995, 0.146029
2023/07/04 15:01:33.413, True, 0.674, 0.147326
2023/07/04 15:01:33.917, True, 0.995, 0.147478
2023/07/04 15:01:34.421, True, 0.995, 0.148394
2023/07/04 15:01:34.917, True, 1.011, 0.147326
2023/07/04 15:01:35.421, True, 0.997, 0.146792
2023/07/04 15:01:35.925, True, 0.993, 0.147784
2023/07/04 15:01:36.421, True, 1.011, 0.146639
2023/07/04 15:01:36.925, True, 0.995, 0.148318
2023/07/04 15:01:37.428, True, 0.995, 0.147860
2023/07/04 15:01:37.933, True, 0.995, 0.146258
2023/07/04 15:01:38.429, True, 1.011, 0.148318
2023/07/04 15:01:38.933, True, 0.994, 0.148394
2023/07/04 15:01:39.437, True, 0.995, 0.147707
2023/07/04 15:01:39.933, True, 1.011, 0.145647
2023/07/04 15:01:40.437, True, 0.995, 0.148699
2023/07/04 15:01:40.941, True, 0.996, 0.149233
2023/07/04 15:01:41.437, True, 1.010, 0.146563
2023/07/04 15:01:41.941, True, 0.996, 0.149310
2023/07/04 15:01:42.444, True, 0.993, 0.148928
2023/07/04 15:01:42.941, True, 1.011, 0.147402
2023/07/04 15:01:43.445, True, 0.995, 0.148623
2023/07/04 15:01:43.949, True, 0.995, 0.146792
2023/07/04 15:01:44.445, True, 0.674, 0.149310
2023/07/04 15:01:44.949, True, 0.995, 0.149386
2023/07/04 15:01:45.452, True, 0.995, 0.148547
2023/07/04 15:01:45.949, True, 1.010, 0.148241
2023/07/04 15:01:46.452, True, 0.995, 0.149157
2023/07/04 15:01:46.957, True, 0.995, 0.147707
2023/07/04 15:01:47.452, True, 1.011, 0.149310
2023/07/04 15:01:47.957, True, 0.995, 0.146715
2023/07/04 15:01:48.461, True, 0.995, 0.148013
2023/07/04 15:01:48.956, True, 1.011, 0.147936
2023/07/04 15:01:49.461, True, 0.994, 0.146487
2023/07/04 15:01:49.957, True, 1.011, 0.147021
2023/07/04 15:01:50.461, True, 0.995, 0.147936
2023/07/04 15:01:50.965, True, 0.995, 0.148547
2023/07/04 15:01:51.460, True, 1.011, 0.147402
2023/07/04 15:01:51.965, True, 0.995, 0.148013
2023/07/04 15:01:52.468, True, 0.995, 0.148699
2023/07/04 15:01:52.965, True, 1.011, 0.148241
2023/07/04 15:01:53.469, True, 0.995, 0.147936
2023/07/04 15:01:53.973, True, 0.995, 0.146715
2023/07/04 15:01:54.476, True, 0.995, 0.145876
2023/07/04 15:01:54.973, True, 1.013, 0.147402
2023/07/04 15:01:55.477, True, 0.993, 0.147097
2023/07/04 15:01:55.972, True, 1.011, 0.147555
2023/07/04 15:01:56.476, True, 0.996, 0.149615
2023/07/04 15:01:56.981, True, 0.994, 0.148394
2023/07/04 15:01:57.477, True, 1.011, 0.148089
2023/07/04 15:01:57.981, True, 0.995, 0.149004
2023/07/04 15:01:58.485, True, 0.995, 0.147478
2023/07/04 15:01:58.980, True, 1.011, 0.149691
2023/07/04 15:01:59.485, True, 0.995, 0.146944
2023/07/04 15:01:59.989, True, 0.995, 0.147707
2023/07/04 15:02:00.485, True, 1.011, 0.148318
2023/07/04 15:02:00.989, True, 0.995, 0.150530
2023/07/04 15:02:01.493, True, 0.995, 0.151064
2023/07/04 15:02:01.997, True, 0.995, 0.148241
2023/07/04 15:02:02.493, True, 1.011, 0.148699
2023/07/04 15:02:02.997, True, 0.995, 0.147784
2023/07/04 15:02:03.493, True, 1.011, 0.147631
2023/07/04 15:02:03.997, True, 0.995, 0.148318
2023/07/04 15:02:04.501, True, 0.995, 0.149615
2023/07/04 15:02:04.997, True, 1.011, 0.146563
2023/07/04 15:02:05.501, True, 0.663, 0.149081
2023/07/04 15:02:06.005, True, 0.995, 0.148165
2023/07/04 15:02:06.501, True, 1.011, 0.146944
2023/07/04 15:02:07.004, True, 1.329, 0.149996
2023/07/04 15:02:07.509, True, 0.993, 0.147784
2023/07/04 15:02:08.005, True, 1.011, 0.147326
2023/07/04 15:02:08.509, True, 0.995, 0.148241
2023/07/04 15:02:09.013, True, 0.663, 0.147707
2023/07/04 15:02:09.508, True, 1.348, 0.149920
2023/07/04 15:02:10.013, True, 0.995, 0.147250
2023/07/04 15:02:10.517, True, 0.663, 0.148318
2023/07/04 15:02:11.013, True, 1.011, 0.149233
2023/07/04 15:02:11.517, True, 0.995, 0.146487
2023/07/04 15:02:12.013, True, 1.013, 0.147707
2023/07/04 15:02:12.516, True, 0.993, 0.146639
2023/07/04 15:02:13.021, True, 0.995, 0.145571
2023/07/04 15:02:13.525, True, 1.326, 0.145876
2023/07/04 15:02:14.020, True, 1.011, 0.148623
2023/07/04 15:02:14.525, True, 0.995, 0.148241
2023/07/04 15:02:15.021, True, 0.674, 0.148852
2023/07/04 15:02:15.524, True, 0.994, 0.146868
2023/07/04 15:02:16.029, True, 0.995, 0.147631
2023/07/04 15:02:16.525, True, 1.011, 0.147478
2023/07/04 15:02:17.028, True, 0.995, 0.148318
2023/07/04 15:02:17.533, True, 0.995, 0.146792
2023/07/04 15:02:18.029, True, 1.011, 0.144961
2023/07/04 15:02:18.532, True, 0.663, 0.146944
2023/07/04 15:02:19.037, True, 0.996, 0.148394
2023/07/04 15:02:19.533, True, 1.010, 0.149233
2023/07/04 15:02:20.036, True, 0.994, 0.148089
2023/07/04 15:02:20.540, True, 0.996, 0.147707
2023/07/04 15:02:21.044, True, 0.662, 0.149462
2023/07/04 15:02:21.540, True, 1.011, 0.146639
2023/07/04 15:02:22.044, True, 0.995, 0.147936
2023/07/04 15:02:22.549, True, 0.994, 0.149004
2023/07/04 15:02:23.044, True, 1.013, 0.149386
2023/07/04 15:02:23.548, True, 0.993, 0.146944
2023/07/04 15:02:24.053, True, 0.995, 0.144961
2023/07/04 15:02:24.557, True, 0.996, 0.149004
2023/07/04 15:02:25.052, True, 1.010, 0.147936
2023/07/04 15:02:25.556, True, 0.994, 0.148394
2023/07/04 15:02:26.061, True, 0.996, 0.146868
2023/07/04 15:02:26.557, True, 1.010, 0.147326
2023/07/04 15:02:27.061, True, 0.994, 0.147707
2023/07/04 15:02:27.556, True, 0.674, 0.148623
2023/07/04 15:02:28.061, True, 0.997, 0.149157
2023/07/04 15:02:28.565, True, 0.995, 0.148165
2023/07/04 15:02:29.060, True, 1.009, 0.148852
2023/07/04 15:02:29.565, True, 0.997, 0.146410
2023/07/04 15:02:30.068, True, 0.994, 0.148394
2023/07/04 15:02:30.565, True, 1.009, 0.148013
2023/07/04 15:02:31.069, True, 0.995, 0.149081
2023/07/04 15:02:31.573, True, 0.996, 0.147631
2023/07/04 15:02:32.069, True, 1.012, 0.147707
2023/07/04 15:02:32.572, True, 0.993, 0.145647
2023/07/04 15:02:33.077, True, 0.997, 0.146105
2023/07/04 15:02:33.573, True, 1.009, 0.148928
2023/07/04 15:02:34.076, True, 0.663, 0.149004
2023/07/04 15:02:34.572, True, 1.013, 0.149615
2023/07/04 15:02:35.077, True, 0.994, 0.147326
2023/07/04 15:02:35.581, True, 0.993, 0.148547
2023/07/04 15:02:36.077, True, 1.012, 0.148852
2023/07/04 15:02:36.580, True, 0.994, 0.146258
2023/07/04 15:02:37.085, True, 0.995, 0.148394
2023/07/04 15:02:37.581, True, 0.674, 0.149233
2023/07/04 15:02:38.085, True, 0.995, 0.145037
2023/07/04 15:02:38.581, True, 1.011, 0.146792
2023/07/04 15:02:39.085, True, 0.996, 0.148394
2023/07/04 15:02:39.589, True, 0.995, 0.149310
2023/07/04 15:02:40.084, True, 1.010, 0.149767
2023/07/04 15:02:40.589, True, 0.994, 0.147707
2023/07/04 15:02:41.093, True, 0.995, 0.147173
2023/07/04 15:02:41.589, True, 1.011, 0.149538
2023/07/04 15:02:42.093, True, 0.995, 0.149386
2023/07/04 15:02:42.596, True, 0.995, 0.146563
2023/07/04 15:02:43.093, True, 1.012, 0.149996
2023/07/04 15:02:43.597, True, 0.994, 0.149004
2023/07/04 15:02:44.101, True, 0.995, 0.148775
2023/07/04 15:02:44.596, True, 1.011, 0.147631
2023/07/04 15:02:45.100, True, 0.995, 0.146563
2023/07/04 15:02:45.604, True, 0.996, 0.148699
2023/07/04 15:02:46.100, True, 1.010, 0.148394
2023/07/04 15:02:46.604, True, 0.995, 0.150072
2023/07/04 15:02:47.109, True, 0.995, 0.146105
2023/07/04 15:02:47.613, True, 0.995, 0.147478
2023/07/04 15:02:48.109, True, 1.011, 0.147784
2023/07/04 15:02:48.612, True, 0.995, 0.149310
2023/07/04 15:02:49.117, True, 0.995, 0.148318
2023/07/04 15:02:49.613, True, 1.011, 0.147021
2023/07/04 15:02:50.117, True, 0.995, 0.147707
2023/07/04 15:02:50.621, True, 0.994, 0.147402
2023/07/04 15:02:51.117, True, 1.011, 0.148470
2023/07/04 15:02:51.621, True, 0.995, 0.147402
2023/07/04 15:02:52.125, True, 0.995, 0.146181
2023/07/04 15:02:52.621, True, 1.012, 0.146792
2023/07/04 15:02:53.124, True, 0.994, 0.146944
2023/07/04 15:02:53.629, True, 0.663, 0.145876
2023/07/04 15:02:54.125, True, 1.011, 0.146487
2023/07/04 15:02:54.629, True, 0.995, 0.147250
2023/07/04 15:02:55.133, True, 0.995, 0.146715
2023/07/04 15:02:55.629, True, 1.011, 0.148547
2023/07/04 15:02:56.133, True, 1.326, 0.147707
2023/07/04 15:02:56.637, True, 0.996, 0.148623
2023/07/04 15:02:57.133, True, 0.674, 0.146105
2023/07/04 15:02:57.637, True, 0.993, 0.147478
2023/07/04 15:02:58.141, True, 0.995, 0.148547
2023/07/04 15:02:58.637, True, 1.011, 0.145800
2023/07/04 15:02:59.141, True, 0.995, 0.146715
2023/07/04 15:02:59.637, True, 1.011, 0.146258
2023/07/04 15:03:00.141, True, 0.995, 0.147173
2023/07/04 15:03:00.645, True, 0.995, 0.147784
2023/07/04 15:03:01.141, True, 0.674, 0.148699
2023/07/04 15:03:01.645, True, 0.996, 0.148165
2023/07/04 15:03:02.149, True, 0.994, 0.147021
2023/07/04 15:03:02.645, True, 1.011, 0.146181
2023/07/04 15:03:03.149, True, 0.995, 0.147631
2023/07/04 15:03:03.653, True, 0.995, 0.146639
2023/07/04 15:03:04.149, True, 1.011, 0.146029
2023/07/04 15:03:04.653, True, 0.995, 0.147021
2023/07/04 15:03:05.157, True, 0.995, 0.146029
2023/07/04 15:03:05.653, True, 1.011, 0.147097
2023/07/04 15:03:06.156, True, 0.996, 0.147173
2023/07/04 15:03:06.661, True, 0.993, 0.146639
2023/07/04 15:03:07.157, True, 1.011, 0.147478
2023/07/04 15:03:07.661, True, 0.995, 0.145495
2023/07/04 15:03:08.165, True, 0.995, 0.148699
2023/07/04 15:03:08.661, True, 1.011, 0.148623
2023/07/04 15:03:09.165, True, 0.995, 0.147631
2023/07/04 15:03:09.668, True, 0.996, 0.148852
2023/07/04 15:03:10.165, True, 0.673, 0.148013
2023/07/04 15:03:10.669, True, 0.996, 0.147784
2023/07/04 15:03:11.173, True, 0.994, 0.149615
2023/07/04 15:03:11.668, True, 1.011, 0.146487
2023/07/04 15:03:12.173, True, 0.995, 0.148470
2023/07/04 15:03:12.677, True, 0.995, 0.147784
2023/07/04 15:03:13.173, True, 1.011, 0.149157
2023/07/04 15:03:13.677, True, 0.995, 0.146181
2023/07/04 15:03:14.172, True, 1.011, 0.147326
2023/07/04 15:03:14.677, True, 0.994, 0.146792
2023/07/04 15:03:15.180, True, 0.995, 0.146105
2023/07/04 15:03:15.677, True, 1.011, 0.147707
2023/07/04 15:03:16.181, True, 0.995, 0.147478
2023/07/04 15:03:16.685, True, 0.996, 0.149615
2023/07/04 15:03:17.181, True, 1.009, 0.147326
2023/07/04 15:03:17.685, True, 0.995, 0.148013
2023/07/04 15:03:18.189, True, 0.995, 0.145876
2023/07/04 15:03:18.693, True, 0.995, 0.149386
2023/07/04 15:03:19.189, True, 1.011, 0.147555
2023/07/04 15:03:19.693, True, 0.995, 0.147478
2023/07/04 15:03:20.196, True, 0.995, 0.147707
2023/07/04 15:03:20.693, True, 1.011, 0.146334
2023/07/04 15:03:21.197, True, 0.995, 0.146715
2023/07/04 15:03:21.701, True, 0.995, 0.146334
2023/07/04 15:03:22.197, True, 1.011, 0.147478
2023/07/04 15:03:22.700, True, 0.995, 0.149081
2023/07/04 15:03:23.205, True, 0.995, 0.146715
2023/07/04 15:03:23.701, True, 1.012, 0.145571
2023/07/04 15:03:24.204, True, 0.994, 0.148623
2023/07/04 15:03:24.709, True, 0.995, 0.148089
2023/07/04 15:03:25.213, True, 0.663, 0.146105
2023/07/04 15:03:25.709, True, 1.011, 0.147936
2023/07/04 15:03:26.213, True, 0.995, 0.146944
2023/07/04 15:03:26.717, True, 0.995, 0.147784
2023/07/04 15:03:27.213, True, 1.011, 0.147326
2023/07/04 15:03:27.717, True, 0.995, 0.146563
2023/07/04 15:03:28.221, True, 0.995, 0.147936
2023/07/04 15:03:28.716, True, 1.011, 0.146639
2023/07/04 15:03:29.221, True, 0.995, 0.146944
2023/07/04 15:03:29.725, True, 0.994, 0.148089
2023/07/04 15:03:30.221, True, 1.011, 0.147707
2023/07/04 15:03:30.725, True, 0.995, 0.147402
2023/07/04 15:03:31.229, True, 0.994, 0.144579
2023/07/04 15:03:31.725, True, 1.011, 0.147402
2023/07/04 15:03:32.229, True, 0.995, 0.147173
2023/07/04 15:03:32.733, True, 0.996, 0.146639
2023/07/04 15:03:33.228, True, 1.010, 0.147936
2023/07/04 15:03:33.733, True, 0.996, 0.146792
2023/07/04 15:03:34.237, True, 0.994, 0.146639
2023/07/04 15:03:34.733, True, 1.011, 0.146410
2023/07/04 15:03:35.237, True, 0.995, 0.147326
2023/07/04 15:03:35.741, True, 0.663, 0.147936
2023/07/04 15:03:36.237, True, 1.011, 0.146029
2023/07/04 15:03:36.741, True, 0.995, 0.146639
2023/07/04 15:03:37.245, True, 0.995, 0.148547
2023/07/04 15:03:37.741, True, 1.011, 0.147860
2023/07/04 15:03:38.244, True, 0.995, 0.147250
2023/07/04 15:03:38.749, True, 0.995, 0.147326
2023/07/04 15:03:39.245, True, 1.011, 0.147478
2023/07/04 15:03:39.748, True, 0.995, 0.145113
2023/07/04 15:03:40.253, True, 0.995, 0.147173
2023/07/04 15:03:40.749, True, 1.011, 0.146181
2023/07/04 15:03:41.253, True, 0.995, 0.146639
2023/07/04 15:03:41.757, True, 0.663, 0.145113
2023/07/04 15:03:42.253, True, 1.011, 0.146563
2023/07/04 15:03:42.757, True, 0.995, 0.147250
2023/07/04 15:03:43.261, True, 0.995, 0.146715
2023/07/04 15:03:43.756, True, 1.011, 0.146487
2023/07/04 15:03:44.261, True, 0.995, 0.145571
2023/07/04 15:03:44.765, True, 0.995, 0.144198
2023/07/04 15:03:45.261, True, 1.011, 0.145571
2023/07/04 15:03:45.765, True, 0.995, 0.146563
2023/07/04 15:03:46.269, True, 0.995, 0.145876
2023/07/04 15:03:46.765, True, 1.011, 0.146944
2023/07/04 15:03:47.269, True, 0.996, 0.146334
2023/07/04 15:03:47.773, True, 0.994, 0.146258
2023/07/04 15:03:48.268, True, 1.011, 0.145571
2023/07/04 15:03:48.773, True, 0.995, 0.145953
2023/07/04 15:03:49.269, True, 1.011, 0.146105
2023/07/04 15:03:49.773, True, 0.663, 0.146258
2023/07/04 15:03:50.276, True, 0.995, 0.147097
2023/07/04 15:03:50.772, True, 1.010, 0.146029
2023/07/04 15:03:51.276, True, 0.995, 0.145724
2023/07/04 15:03:51.781, True, 0.995, 0.143435
2023/07/04 15:03:52.285, True, 0.995, 0.144884
2023/07/04 15:03:52.781, True, 1.011, 0.145800
2023/07/04 15:03:53.285, True, 0.995, 0.145418
2023/07/04 15:03:53.789, True, 0.995, 0.146715
2023/07/04 15:03:54.285, True, 1.011, 0.146792
2023/07/04 15:03:54.789, True, 0.995, 0.145495
2023/07/04 15:03:55.293, True, 0.995, 0.143511
2023/07/04 15:03:55.789, True, 1.011, 0.144579
2023/07/04 15:03:56.292, True, 0.995, 0.145113
2023/07/04 15:03:56.796, True, 0.995, 0.146639
2023/07/04 15:03:57.293, True, 1.011, 0.146105
2023/07/04 15:03:57.796, True, 0.995, 0.144961
2023/07/04 15:03:58.300, True, 0.995, 0.145724
2023/07/04 15:03:58.796, True, 1.011, 0.145418
2023/07/04 15:03:59.301, True, 0.994, 0.146410
2023/07/04 15:03:59.805, True, 0.995, 0.146410
2023/07/04 15:04:00.300, True, 1.011, 0.148394
2023/07/04 15:04:00.805, True, 0.995, 0.144503
2023/07/04 15:04:01.309, True, 0.996, 0.146639
2023/07/04 15:04:01.804, True, 1.010, 0.146487
2023/07/04 15:04:02.308, True, 0.995, 0.147478
2023/07/04 15:04:02.813, True, 0.996, 0.146410
2023/07/04 15:04:03.308, True, 1.010, 0.146715
2023/07/04 15:04:03.812, True, 0.994, 0.147097
2023/07/04 15:04:04.316, True, 0.996, 0.146944
2023/07/04 15:04:04.812, True, 1.011, 0.147478
2023/07/04 15:04:05.317, True, 0.995, 0.145190
2023/07/04 15:04:05.821, True, 0.995, 0.144198
2023/07/04 15:04:06.317, True, 1.010, 0.147326
2023/07/04 15:04:06.821, True, 0.994, 0.144579
2023/07/04 15:04:07.325, True, 0.994, 0.144656
2023/07/04 15:04:07.821, True, 1.012, 0.146334
2023/07/04 15:04:08.324, True, 0.662, 0.146563
2023/07/04 15:04:08.828, True, 0.994, 0.146868
2023/07/04 15:04:09.325, True, 1.011, 0.146639
2023/07/04 15:04:09.829, True, 0.996, 0.146792
2023/07/04 15:04:10.333, True, 0.995, 0.143969
2023/07/04 15:04:10.829, True, 1.011, 0.145266
2023/07/04 15:04:11.333, True, 0.994, 0.147021
2023/07/04 15:04:11.837, True, 0.995, 0.145418
2023/07/04 15:04:12.333, True, 1.013, 0.149767